Wind_Speed
6 4 2 4 7 9 12 14 12 14 14 13 12 11 9 9 13 10 10 7 2 2 4 8 8 9 11 11 9 10 8 8 8 9 10 9 8 8 10 11 10 8 10
6 3 3 3 5 7 12 14 13 14 13 12 11 12 10 11 13 14 13 11 6 6 6 8 8 7 9 9 10 10 8 8 10 11 8 9 9 10 9 11 8 8 8
4 4 4 3 3 6 9 14 12 13 13 11 11 11 11 11 13 14 15 13 10 8 9 10 8 8 10 9 6 7 7 7 7 8 9 6 7 9 10 9 11 10 8
2 4 5 5 4 5 7 12 12 13 12 10 7 10 13 13 15 16 16 14 13 11 9 8 8 8 7 9 7 6 9 7 7 10 12 10 7 6 8 11 11 12 12
3 3 6 6 5 4 6 10 10 11 11 10 7 10 13 14 18 18 16 17 15 11 10 9 8 9 11 10 9 10 8 9 8 11 9 9 8 6 8 8 8 10 10
3 3 7 5 4 6 6 8 8 10 10 11 9 11 12 14 17 19 18 19 18 15 12 10 8 9 11 11 10 11 11 11 14 11 10 9 8 8 8 8 11 10 9
4 4 7 5 6 7 8 7 7 10 10 12 9 9 11 13 15 18 19 18 18 17 12 10 7 8 9 8 8 5 12 11 11 12 10 9 9 10 11 10 9 10 9
5 6 7 8 9 8 7 6 7 11 11 12 12 9 9 13 17 17 18 18 19 18 15 11 9 9 9 8 8 7 8 10 11 12 13 11 11 8 10 8 7 8 8
6 7 9 11 11 9 9 7 7 11 11 11 12 11 9 12 14 15 17 17 17 17 15 12 10 9 9 10 8 8 8 9 9 11 11 10 10 9 7 7 7 6 7
6 7 10 13 14 12 10 8 8 11 11 11 13 12 11 10 11 13 14 14 16 15 14 12 11 15 12 12 14 13 10 9 8 9 7 8 8 10 8 7 7 5 5
6 5 11 16 18 16 13 13 10 11 12 11 9 11 11 12 11 11 11 9 3 10 7 8 9 9 11 12 12 14 13 11 9 8 7 8 8 8 9 9 7 6 7
3 2 9 18 21 20 15 14 13 11 13 10 10 9 9 9 10 10 9 12 15 10 5 9 10 10 11 10 11 13 13 12 11 10 10 9 9 10 11 11 8 8 8
2 4 7 18 20 20 16 15 13 12 12 9 9 10 9 8 9 11 14 16 15 12 11 6 6 6 9 11 10 11 10 11 10 11 10 10 10 9 11 11 9 8 8
11 12 15 18 20 20 18 16 13 14 10 8 6 7 10 9 7 6 12 13 17 12 7 9 12 13 10 7 7 9 10 9 9 10 9 9 11 11 10 10 10 8 7
14 12 13 16 17 16 17 15 12 12 11 8 5 4 7 8 6 4 8 9 15 20 13 10 12 16 13 11 9 9 11 10 10 10 10 10 12 12 11 9 9 8 6
12 11 12 14 14 13 12 13 11 9 11 10 7 5 6 7 6 6 7 11 15 16 19 11 14 15 10 10 10 11 11 11 11 11 10 11 12 12 11 10 8 7 5
5 9 10 11 12 13 11 11 11 10 9 9 7 6 7 6 6 6 6 9 15 14 17 21 16 17 18 12 13 14 14 12 13 12 11 12 11 11 11 10 8 7 6
7 7 6 8 10 11 12 9 9 10 11 10 9 6 8 7 5 3 3 6 7 10 12 13 12 14 14 19 13 9 10 10 11 11 11 12 12 12 12 12 9 7 7
3 6 6 8 11 9 12 9 8 9 11 10 9 9 7 7 6 3 1 3 6 11 8 7 13 11 11 12 9 8 10 11 8 7 7 8 8 9 10 10 9 9 9
1 3 6 6 9 8 7 10 8 9 11 10 10 10 10 9 7 7 5 2 2 4 3 5 8 10 9 7 12 13 10 9 8 6 4 5 3 3 5 5 6 6 6
2 3 4 7 8 8 12 13 11 12 11 10 9 8 10 11 11 9 6 5 3 2 1 1 4 4 9 5 9 10 6 8 7 4 3 5 4 1 2 2 3 4 4
3 3 4 4 6 10 15 13 13 11 10 9 13 14 13 13 13 13 11 10 8 6 4 4 1 1 5 4 3 5 6 7 5 2 1 1 4 3 1 1 2 2 3
4 4 3 2 4 3 8 9 11 12 13 14 17 17 15 13 12 13 14 15 12 10 9 8 7 5 3 2 2 1 2 1 0 2 2 3 4 6 4 3 2 2 4
8 7 6 2 3 5 5 8 14 17 16 18 15 13 16 17 18 16 15 17 17 16 15 14 12 10 10 7 5 5 2 2 3 4 5 4 3 5 3 3 5 3 3
10 11 11 8 5 5 6 10 11 12 15 16 17 16 16 17 18 19 18 17 18 19 19 19 16 13 14 11 8 8 6 6 5 6 7 9 6 7 6 4 4 5 6
8 9 10 10 8 6 7 9 10 13 15 15 17 18 19 20 20 20 20 21 22 21 22 22 21 19 17 15 13 12 11 10 8 8 10 10 11 10 9 8 7 7 7
Wind_Direction
101 99 70 77 78 86 97 95 88 77 64 60 66 71 66 56 56 55 49 46 73 148 90 92 118 137 144 140 127 120 127 130 121 105 98 101 100 109 108 106 109 108 106
124 133 158 85 86 83 104 109 105 95 78 72 68 74 65 61 52 46 42 45 60 76 91 93 86 101 118 117 136 141 136 142 138 127 123 122 123 118 118 128 123 122 115
138 160 194 149 101 95 110 113 112 99 83 86 83 76 63 56 55 46 39 38 62 84 82 83 64 83 126 140 126 127 130 137 126 122 127 126 122 128 134 142 136 135 134
197 161 183 167 150 114 110 116 113 103 87 75 78 63 59 46 49 45 43 45 63 81 90 94 101 95 110 141 134 145 115 133 136 149 155 144 143 151 153 145 141 136 134
266 212 186 168 157 134 111 116 108 105 90 61 57 69 62 51 50 47 50 51 62 82 89 91 104 98 107 120 111 113 128 129 145 169 151 148 149 160 166 140 130 122 126
246 217 192 187 165 138 109 117 104 97 82 61 65 63 61 56 48 45 52 55 59 72 100 110 107 107 111 106 108 116 106 107 102 135 183 168 152 162 157 172 153 145 137
215 208 196 198 170 159 115 125 107 92 75 60 56 52 63 63 55 47 47 62 66 72 80 96 92 78 82 93 103 108 120 111 107 113 124 159 154 157 159 176 165 153 148
207 204 209 208 173 150 145 135 123 96 80 67 60 61 66 67 57 52 45 54 65 67 73 80 79 85 94 96 93 99 115 125 123 123 124 134 146 150 150 151 155 165 165
200 208 212 211 198 181 146 142 128 101 91 76 60 60 63 62 58 54 53 58 67 72 73 73 77 80 94 102 95 118 111 105 109 111 111 119 125 128 140 148 151 159 172
234 225 215 208 205 185 168 156 137 112 95 85 64 62 68 58 50 55 58 70 70 71 73 69 82 89 90 108 82 86 81 91 89 78 75 90 114 121 127 146 137 158 159
241 256 227 213 199 185 167 161 141 122 97 86 67 71 71 67 65 59 61 66 78 71 82 71 93 81 81 87 77 71 74 71 70 69 87 81 92 116 125 139 137 167 155
266 319 218 197 189 175 164 164 144 128 105 94 72 71 75 70 66 60 25 48 57 64 63 89 86 73 82 97 77 70 71 73 70 74 73 78 96 114 121 122 133 144 152
126 93 121 159 176 168 163 162 147 138 126 106 85 71 70 64 55 53 56 49 42 39 48 131 63 103 100 86 89 78 74 76 84 83 83 87 91 104 108 112 117 120 138
139 118 109 126 143 150 156 159 148 145 147 129 115 89 82 69 55 76 71 59 35 48 78 85 62 147 152 53 94 96 90 84 83 90 90 91 90 86 86 90 96 101 105
140 141 127 131 137 150 157 157 153 152 151 143 134 107 79 74 76 87 64 38 44 46 73 73 63 90 107 117 117 109 100 97 98 101 102 97 92 87 82 78 77 82 91
144 144 142 141 144 149 154 156 161 167 155 148 146 134 102 87 81 61 63 68 59 50 45 78 76 71 77 108 132 121 111 105 99 99 104 100 94 93 89 84 78 81 90
177 158 142 156 156 156 159 161 167 185 189 170 163 154 129 111 102 86 68 59 76 64 61 82 77 71 66 87 127 113 112 99 90 86 86 89 91 93 94 89 89 94 94
196 187 162 177 179 180 163 163 183 190 199 203 188 173 153 154 129 113 91 70 53 73 70 84 78 74 87 90 118 120 130 111 99 87 79 78 83 87 89 90 91 93 90
156 202 211 188 182 178 184 192 209 217 207 209 212 200 181 170 172 165 112 76 53 69 94 89 90 90 81 84 69 125 119 109 107 104 105 98 93 93 92 93 93 89 83
334 216 208 226 194 205 207 226 215 206 198 205 211 215 206 200 192 196 178 148 74 48 85 100 106 96 92 90 75 126 98 104 83 68 56 78 92 98 89 82 80 74 64
21 299 242 235 236 206 208 224 211 203 204 208 212 215 221 218 218 209 212 211 211 211 298 150 126 112 103 106 107 118 114 112 86 66 83 76 74 81 70 71 49 48 55
6 347 309 284 283 245 213 219 217 209 213 222 224 223 221 224 217 219 218 225 225 221 228 256 261 119 101 136 96 118 110 132 102 129 106 314 316 272 264 28 63 351 359
357 325 338 297 260 226 190 209 232 223 220 228 225 223 217 219 226 229 225 230 235 233 229 229 247 248 241 200 199 177 114 219 35 260 289 314 258 257 267 279 296 336 328
18 356 331 296 274 236 201 207 231 240 237 243 247 227 231 233 236 232 231 228 233 237 235 238 232 246 241 241 251 264 299 275 240 260 276 296 276 269 301 319 334 312 293
39 28 11 355 311 257 237 226 233 242 247 249 249 241 230 233 235 235 228 223 230 235 235 238 237 236 245 242 244 261 278 287 281 265 271 280 293 304 307 291 275 292 297
15 16 9 5 353 305 265 252 248 251 256 256 255 252 244 239 233 230 234 229 233 234 236 240 241 234 237 245 245 246 263 265 265 258 262 275 296 300 297 295 282 279 281
Height
5901 5901 5901 5902 5900 5900 5899 5898 5898 5899 5900 5900 5899 5900 5900 5898 5897 5897 5897 5897 5897 5897 5897 5898 5898 5900 5900 5899 5899 5899 5900 5900 5900 5900 5901 5902 5903 5903 5904 5905 5906 5907 5907
5901 5902 5902 5902 5901 5901 5901 5901 5901 5902 5903 5902 5902 5902 5901 5900 5900 5899 5898 5898 5898 5898 5898 5899 5900 5901 5903 5903 5901 5900 5901 5901 5901 5901 5903 5904 5904 5905 5906 5907 5908 5909 5909
5901 5902 5903 5903 5902 5902 5902 5901 5902 5904 5905 5905 5905 5906 5905 5903 5903 5901 5900 5898 5898 5897 5898 5900 5900 5901 5903 5903 5904 5905 5904 5904 5905 5906 5906 5906 5905 5906 5906 5908 5909 5910 5910
5899 5901 5903 5904 5903 5903 5903 5903 5903 5904 5906 5906 5908 5908 5907 5906 5905 5903 5901 5899 5899 5898 5899 5900 5900 5901 5902 5903 5903 5904 5905 5906 5906 5906 5906 5907 5908 5908 5908 5908 5909 5910 5912
5898 5899 5901 5903 5903 5903 5904 5904 5905 5905 5907 5909 5909 5909 5909 5907 5906 5904 5902 5900 5900 5900 5900 5901 5901 5902 5903 5903 5904 5904 5905 5906 5908 5909 5908 5907 5907 5909 5910 5910 5909 5910 5912
5898 5899 5900 5901 5901 5903 5905 5905 5906 5906 5909 5909 5910 5910 5910 5908 5907 5906 5904 5902 5900 5900 5900 5901 5902 5903 5905 5906 5906 5906 5905 5907 5907 5907 5907 5908 5909 5910 5911 5912 5910 5911 5913
5899 5899 5901 5901 5901 5902 5905 5906 5907 5907 5910 5910 5910 5910 5910 5910 5909 5908 5905 5904 5904 5904 5904 5904 5904 5906 5907 5908 5909 5907 5907 5909 5908 5907 5909 5910 5911 5911 5912 5913 5913 5911 5912
5899 5900 5901 5901 5901 5902 5905 5907 5909 5909 5912 5912 5912 5911 5912 5911 5911 5910 5909 5908 5908 5908 5908 5908 5908 5908 5909 5909 5910 5910 5911 5912 5912 5910 5910 5912 5912 5913 5912 5913 5914 5913 5913
5899 5900 5900 5901 5902 5903 5906 5909 5910 5911 5913 5913 5914 5914 5914 5914 5914 5913 5913 5912 5912 5911 5912 5911 5910 5910 5910 5911 5911 5912 5912 5913 5913 5911 5910 5910 5911 5912 5913 5913 5914 5915 5914
5899 5900 5900 5900 5902 5905 5907 5910 5912 5912 5914 5915 5916 5916 5916 5916 5916 5917 5917 5917 5917 5916 5915 5914 5913 5912 5912 5913 5912 5912 5913 5913 5914 5912 5912 5911 5912 5911 5912 5913 5915 5915 5916
5899 5899 5899 5898 5900 5904 5908 5911 5913 5914 5916 5917 5918 5919 5919 5920 5919 5920 5919 5919 5919 5919 5917 5916 5915 5915 5914 5915 5916 5916 5915 5916 5916 5915 5915 5914 5913 5913 5913 5914 5915 5916 5916
5899 5897 5896 5896 5899 5904 5909 5912 5914 5915 5917 5920 5921 5922 5921 5922 5922 5923 5920 5921 5921 5920 5919 5918 5917 5918 5917 5917 5918 5918 5918 5919 5919 5918 5917 5917 5917 5916 5916 5916 5916 5916 5917
5899 5898 5894 5895 5900 5905 5910 5913 5915 5917 5919 5921 5924 5924 5924 5924 5924 5925 5925 5924 5922 5921 5920 5921 5921 5920 5920 5919 5920 5920 5921 5921 5922 5921 5921 5921 5920 5920 5919 5918 5919 5920 5920
5899 5899 5899 5901 5905 5907 5911 5914 5916 5918 5920 5923 5925 5926 5926 5926 5926 5926 5926 5925 5925 5924 5924 5924 5924 5921 5921 5921 5923 5923 5923 5924 5924 5923 5924 5923 5922 5922 5922 5921 5922 5922 5923
5900 5902 5903 5905 5907 5910 5913 5915 5917 5919 5921 5923 5926 5928 5928 5927 5928 5929 5929 5928 5928 5927 5926 5927 5926 5924 5922 5923 5924 5924 5924 5925 5925 5925 5926 5925 5923 5923 5923 5924 5924 5924 5925
5903 5904 5905 5907 5909 5912 5914 5917 5919 5921 5923 5924 5927 5929 5930 5929 5929 5929 5930 5931 5932 5931 5930 5925 5928 5928 5927 5926 5927 5927 5927 5927 5927 5927 5927 5926 5925 5925 5925 5925 5926 5927 5927
5906 5905 5907 5909 5911 5912 5915 5918 5920 5922 5923 5925 5927 5929 5931 5931 5931 5931 5931 5932 5934 5933 5933 5933 5932 5932 5930 5927 5929 5930 5930 5931 5930 5930 5930 5929 5928 5928 5928 5928 5929 5930 5929
5906 5906 5907 5910 5912 5913 5915 5918 5920 5923 5923 5924 5927 5930 5931 5932 5932 5932 5933 5933 5934 5935 5936 5936 5935 5935 5933 5932 5932 5932 5933 5933 5933 5935 5935 5934 5932 5932 5931 5930 5930 5931 5930
5907 5907 5907 5910 5912 5913 5915 5918 5920 5922 5923 5925 5927 5929 5931 5933 5933 5933 5933 5933 5934 5936 5938 5937 5935 5937 5937 5935 5934 5933 5935 5935 5936 5936 5936 5935 5935 5934 5933 5932 5932 5932 5932
5906 5907 5908 5909 5912 5913 5913 5917 5919 5920 5921 5924 5927 5928 5930 5932 5932 5933 5933 5934 5934 5935 5938 5938 5938 5937 5938 5937 5936 5936 5937 5938 5938 5939 5938 5937 5937 5936 5935 5934 5934 5933 5932
5906 5906 5908 5908 5909 5912 5913 5915 5918 5919 5921 5924 5925 5927 5928 5931 5932 5933 5932 5933 5935 5935 5937 5938 5940 5940 5939 5939 5939 5939 5939 5939 5939 5939 5939 5938 5938 5937 5936 5935 5934 5933 5932
5906 5907 5907 5907 5908 5909 5912 5913 5916 5919 5920 5922 5924 5925 5927 5928 5930 5931 5932 5933 5933 5935 5936 5938 5938 5939 5939 5941 5940 5940 5940 5940 5940 5939 5939 5938 5937 5937 5936 5935 5934 5934 5934
5906 5907 5907 5907 5908 5908 5910 5912 5915 5917 5918 5919 5920 5921 5924 5926 5928 5928 5930 5931 5932 5933 5935 5936 5936 5938 5938 5940 5940 5940 5939 5939 5940 5939 5939 5938 5937 5936 5935 5935 5934 5934 5934
5908 5907 5908 5908 5908 5908 5909 5910 5912 5914 5915 5916 5918 5921 5921 5923 5924 5925 5926 5928 5929 5930 5932 5933 5934 5935 5936 5937 5939 5939 5939 5939 5940 5939 5938 5938 5937 5936 5935 5933 5933 5933 5933
5909 5908 5907 5907 5907 5908 5909 5909 5910 5911 5912 5914 5915 5916 5917 5918 5919 5921 5922 5923 5925 5927 5928 5930 5931 5932 5933 5934 5936 5937 5938 5939 5938 5937 5937 5936 5935 5934 5934 5933 5932 5932 5932
5909 5908 5906 5905 5905 5905 5906 5907 5907 5907 5909 5911 5912 5912 5914 5915 5915 5915 5916 5918 5920 5922 5924 5925 5927 5929 5929 5930 5932 5935 5936 5936 5936 5935 5935 5933 5932 5933 5932 5932 5931 5930 5931